Temperature
22 24 25 25 25 25 24 23 22 23 23 23 23 23 23 24 24 23 23 23 23 23 23 23 22 22 22 21 21 21 20 20 20 19 19 19 18 18 18 18 18 18 18 18
23 24 25 25 25 25 25 24 24 23 23 23 23 24 23 23 23 23 23 23 23 23 22 22 22 22 22 21 21 20 20 20 20 19 19 19 18 18 18 18 18 18 18 17
20 22 23 23 24 24 24 24 23 22 22 22 22 22 23 23 23 23 23 23 23 22 22 22 22 22 22 21 21 20 20 20 19 19 19 19 18 18 18 18 18 18 18 17
18 21 22 21 23 24 24 24 23 23 22 22 22 23 23 24 23 23 23 23 23 22 22 22 22 22 21 21 21 20 20 19 19 19 19 19 18 18 18 18 18 18 17 17
17 19 20 22 23 24 23 22 22 22 22 22 22 22 22 23 23 23 23 23 23 22 22 22 22 21 21 21 20 20 20 19 19 19 19 18 18 18 18 18 18 17 17 17
17 19 19 21 23 24 23 21 21 21 21 21 21 19 20 22 23 22 22 22 22 22 22 21 21 21 21 20 20 20 20 19 19 19 18 18 18 18 18 18 18 17 17 17
17 18 18 20 22 23 21 20 21 21 21 21 20 20 21 21 22 22 22 22 22 21 21 21 21 20 20 20 20 19 19 19 19 19 18 18 18 18 18 17 17 17 17 17
16 17 18 20 21 20 19 21 21 21 21 21 20 21 21 21 21 21 21 21 21 21 21 20 20 20 20 20 20 19 19 18 18 18 18 18 18 18 17 17 17 17 17 17
16 16 18 20 20 20 21 21 21 20 20 20 20 20 20 20 20 20 20 20 20 20 20 20 20 20 20 20 19 19 18 18 18 18 18 17 18 17 17 17 17 17 16 16
15 16 18 19 20 20 20 20 20 20 20 20 19 19 19 19 19 19 19 19 20 19 19 19 19 19 19 19 19 18 18 18 18 17 17 17 17 17 17 17 17 16 16 16
15 15 17 18 19 19 19 20 19 19 19 20 19 19 18 18 19 19 19 19 19 19 19 19 19 18 18 18 18 18 18 17 17 17 17 17 16 16 16 16 17 17 16 16
14 16 15 17 18 19 19 19 19 18 18 19 19 18 18 18 18 18 18 18 18 18 18 18 18 18 18 18 18 18 17 17 17 16 16 16 16 16 16 16 16 16 16 16
16 17 17 17 18 18 18 18 18 18 18 18 18 18 18 17 17 17 18 18 18 18 18 18 18 17 18 18 17 17 17 17 16 16 16 16 16 16 16 16 16 15 16 16
16 16 16 16 17 17 17 17 17 17 17 17 17 17 17 17 17 17 17 17 17 17 17 17 17 17 17 17 17 17 17 16 16 16 16 16 16 16 15 15 15 15 15 15
16 16 16 16 16 16 16 17 16 16 17 17 17 17 17 17 17 17 17 17 17 17 17 17 17 17 17 17 16 16 16 16 16 16 15 15 15 15 15 15 15 15 15 15
15 16 16 16 16 16 16 16 16 16 16 16 16 16 16 17 17 16 16 17 16 16 16 17 17 16 16 16 16 16 16 15 15 15 15 15 15 15 15 15 15 15 15 15
15 15 15 15 15 15 15 15 15 15 15 16 16 16 16 16 16 16 16 16 16 16 16 16 16 16 16 16 15 15 15 15 15 15 15 15 15 14 14 14 15 15 15 15
14 15 15 15 15 15 15 15 15 15 15 15 15 15 16 16 16 15 15 15 15 16 16 16 16 15 15 15 15 15 15 15 14 15 15 15 14 14 14 14 14 14 14 14
14 14 14 14 14 14 14 14 14 14 15 15 15 15 15 15 15 15 15 15 15 15 15 15 15 15 15 14 14 14 14 14 14 14 14 14 14 14 14 14 14 14 14 14
14 14 14 14 14 14 14 14 14 14 14 14 14 15 15 15 15 15 15 14 15 15 15 14 14 14 14 14 14 14 14 14 14 14 14 14 14 14 14 14 14 14 14 14
13 13 13 13 13 13 14 14 14 14 14 14 14 14 14 14 14 14 14 14 14 14 14 14 14 14 14 14 14 14 14 13 14 13 13 14 13 13 13 13 13 13 13 13
13 13 13 13 13 13 13 13 13 13 13 13 13 13 13 13 13 13 14 14 14 14 14 14 14 14 13 13 13 13 13 13 13 13 13 13 13 13 13 13 13 13 13 13
13 13 13 13 13 13 13 13 13 13 13 13 13 13 13 13 13 13 13 13 13 13 13 13 13 13 13 13 13 13 13 13 13 13 13 13 13 13 13 13 13 13 13 13
13 13 12 12 12 12 12 12 12 12 12 12 13 13 13 13 13 13 13 13 13 13 13 13 13 13 13 13 13 13 13 13 12 12 12 12 12 12 12 12 12 12 12 12
12 12 12 12 12 12 12 12 12 12 12 12 12 12 12 12 12 12 12 12 12 12 12 12 12 12 12 12 12 12 12 12 12 12 12 12 12 12 12 12 12 12 12 12
12 12 12 12 12 12 12 12 12 12 12 12 12 12 12 12 12 12 12 12 12 12 12 12 12 12 12 12 12 12 12 12 12 12 12 11 12 12 11 11 11 11 11 11
12 12 12 12 12 12 12 12 12 12 12 12 12 12 12 12 12 12 12 12 12 12 12 12 12 12 11 11 11 11 11 11 11 11 11 11 11 11 11 11 11 11 11 11
Wind_Speed
4 4 1 3 4 3 1 5 6 7 6 7 8 8 8 7 7 7 8 8 7 7 7 7 7 6 8 8 9 10 10 10 9 8 7 6 5 5 5 5 5 4 4 2
3 3 3 4 4 3 2 1 3 3 4 6 5 5 6 7 8 7 7 8 8 7 7 7 8 8 7 8 8 9 10 10 8 8 7 7 6 5 5 5 4 4 4 3
3 4 4 4 4 1 1 1 4 4 6 3 3 5 7 8 9 8 7 7 8 8 8 7 8 9 9 8 7 8 9 9 8 9 8 7 8 6 5 5 4 4 4 3
1 2 4 7 4 2 1 1 0 2 3 4 5 5 5 6 8 7 6 6 6 6 6 6 6 7 7 7 6 7 8 8 8 8 8 8 7 7 6 5 5 4 4 4
3 3 5 6 4 1 0 4 2 2 2 3 5 5 3 1 5 7 7 7 6 6 6 6 7 8 8 7 6 7 7 7 8 8 8 8 8 7 6 5 5 4 4 5
3 3 6 7 5 3 2 4 3 2 3 3 5 3 3 3 3 5 5 4 5 5 5 6 5 7 7 7 7 7 7 7 7 7 8 9 8 7 6 5 5 5 5 5
4 5 6 6 5 3 2 6 4 2 4 4 2 5 5 3 4 4 4 4 5 6 6 6 6 7 7 7 7 7 6 6 6 7 7 8 7 6 6 6 5 5 5 4
3 4 7 5 1 2 6 4 2 2 3 3 4 4 4 4 4 5 4 4 5 6 5 4 6 7 6 6 5 5 5 5 6 6 6 6 6 5 5 6 6 5 4 4
6 6 5 2 1 2 3 3 2 2 3 5 5 4 4 3 3 3 4 3 4 6 5 4 4 6 6 5 5 5 5 5 5 6 5 5 6 6 5 5 6 6 5 5
1 3 3 3 3 3 2 1 1 3 5 6 5 4 4 3 3 2 2 2 3 5 6 5 4 4 4 4 6 6 6 6 5 5 5 5 5 5 6 6 6 5 6 5
2 5 5 5 3 2 3 3 3 2 2 4 6 5 3 2 3 2 1 2 2 4 5 5 5 4 4 5 6 5 5 4 4 4 5 5 4 4 5 6 7 7 6 6
6 7 4 6 4 1 1 1 1 1 1 1 3 4 3 1 1 2 1 2 2 3 3 4 4 4 4 5 6 6 5 4 4 3 4 4 4 2 2 4 5 7 8 7
7 7 5 5 4 2 1 1 1 2 3 2 2 3 3 1 1 1 2 2 2 3 3 3 4 4 3 4 5 6 6 6 5 4 4 4 5 5 3 2 2 5 7 8
4 3 4 5 4 3 2 2 1 1 2 3 3 3 3 1 1 1 2 2 2 2 3 3 4 4 4 3 4 5 5 6 5 5 5 5 5 5 5 5 4 3 4 7
6 5 7 6 3 3 3 2 2 3 3 2 2 3 4 3 2 2 2 2 2 2 2 2 3 3 4 4 4 5 5 4 4 4 4 4 4 4 4 5 5 4 2 3
6 5 4 4 4 4 4 4 4 5 4 4 3 4 4 4 4 3 2 2 3 3 3 3 3 4 4 5 4 4 4 6 5 4 4 4 4 4 4 4 4 5 5 5
5 5 5 5 5 5 5 5 5 5 5 4 4 4 4 3 2 3 3 3 4 4 4 4 4 3 4 4 5 4 4 5 6 4 4 4 4 4 5 5 5 5 6 6
6 7 7 6 5 5 5 5 4 5 5 5 4 3 4 4 4 5 5 4 3 3 3 4 4 3 3 3 4 4 4 4 4 4 4 3 3 4 4 4 5 5 4 4
5 5 5 5 5 5 5 5 5 5 4 4 4 5 6 6 6 5 4 4 5 5 5 5 5 4 4 4 4 3 4 4 4 3 3 3 3 3 3 3 3 4 4 4
4 2 2 2 3 4 4 4 4 4 4 4 4 4 4 4 5 5 4 5 5 5 5 5 5 4 4 5 4 3 4 4 4 4 3 3 3 3 3 3 3 4 4 4
4 2 2 0 1 1 2 3 3 4 4 3 4 5 5 4 4 4 4 4 4 4 4 5 4 4 4 4 3 3 3 4 4 4 3 3 3 3 3 3 3 4 4 4
3 2 1 0 0 1 1 1 2 2 2 2 3 3 4 3 3 3 3 4 4 4 3 3 3 4 5 4 3 3 3 3 3 3 3 3 3 3 2 3 3 4 4 4
2 1 1 0 1 1 1 1 1 2 2 2 3 3 4 3 4 4 3 3 2 3 2 2 4 5 5 3 3 3 3 3 3 3 3 3 3 3 3 3 3 3 3 3
2 2 1 1 0 0 1 2 1 1 2 2 2 3 3 2 2 2 2 3 3 3 2 3 4 4 4 3 2 2 3 3 3 3 3 2 2 2 2 2 3 3 3 3
3 2 2 1 1 2 3 2 1 1 1 1 1 1 1 2 2 1 1 2 2 2 2 2 2 2 2 2 3 3 2 3 3 3 3 3 2 2 2 2 3 3 2 2
3 2 2 2 3 3 2 1 1 1 1 1 1 1 1 1 1 1 1 1 2 2 2 1 1 1 2 2 2 2 2 2 3 3 3 3 2 2 2 2 3 3 2 2
3 2 2 2 2 2 1 1 1 1 1 2 1 1 1 1 1 1 1 1 1 1 1 0 1 1 1 1 2 2 2 2 2 2 2 3 3 3 2 2 2 1 2 2
Wind_Direction
221 237 238 278 294 313 292 198 186 207 197 215 200 184 178 165 154 149 157 158 162 166 166 161 158 161 166 173 176 175 172 176 184 184 178 174 172 173 172 171 171 165 156 154
331 334 349 321 314 303 286 228 173 170 231 229 198 155 152 152 148 154 167 169 169 166 162 165 168 171 166 166 173 172 178 185 184 179 175 175 176 173 171 174 171 162 168 166
281 312 7 304 271 235 268 229 169 212 231 190 133 155 171 165 159 165 168 167 170 174 175 176 177 173 174 170 170 172 177 182 181 180 179 180 179 174 178 184 177 167 171 164
174 38 235 246 257 196 151 310 315 197 201 175 169 175 168 151 155 159 157 162 169 172 174 175 169 168 166 161 161 168 174 181 182 180 183 182 180 184 187 181 174 176 178 177
137 194 265 291 307 308 220 295 325 125 123 134 129 93 46 151 157 163 168 173 176 170 161 154 153 159 152 157 162 168 174 178 181 179 181 182 186 192 192 182 184 185 181 179
143 175 224 249 280 261 119 289 305 117 137 139 110 123 231 218 160 151 147 153 153 147 135 142 145 145 145 156 166 181 187 187 182 179 181 187 192 195 193 186 193 188 190 191
182 211 248 259 296 25 144 237 258 138 143 141 158 191 195 160 127 132 132 139 146 137 143 156 148 144 152 161 183 192 187 183 180 181 186 190 191 192 186 186 187 190 195 203
170 202 249 286 32 185 223 230 206 134 134 120 120 115 114 120 127 129 123 118 133 135 141 153 148 146 157 178 186 170 167 174 182 184 190 190 183 189 186 184 187 193 192 202
188 211 248 278 172 223 201 183 193 146 123 121 117 113 108 112 130 134 137 139 132 140 139 140 147 153 168 184 167 158 162 174 183 184 189 186 180 183 184 185 190 197 195 206
342 295 304 339 30 27 44 108 144 133 132 123 117 116 111 110 107 109 108 125 124 137 143 151 158 170 177 176 165 163 172 178 179 180 187 190 188 187 187 190 194 198 200 206
275 279 316 329 341 11 28 54 60 50 123 135 125 123 123 127 132 129 139 135 139 155 161 168 168 173 176 169 158 160 168 173 176 184 189 189 191 199 200 204 203 199 206 199
242 250 237 262 276 313 42 72 119 96 28 95 125 135 125 127 158 154 155 145 147 168 175 173 172 181 183 176 166 164 169 181 182 188 190 186 185 204 240 212 210 207 205 199
236 253 245 257 272 256 232 262 198 177 184 181 188 157 145 152 203 173 171 166 177 194 194 180 176 186 194 181 171 174 182 187 185 188 193 195 194 193 209 269 236 215 215 209
253 259 266 261 260 260 231 223 219 221 206 198 197 180 161 147 137 156 198 221 217 193 187 180 181 200 200 182 175 182 187 189 186 190 197 202 204 201 197 200 214 245 240 224
273 244 231 239 239 235 220 205 206 229 231 233 199 179 174 176 187 212 231 239 210 175 184 182 188 212 197 177 181 191 190 191 193 194 195 203 206 205 205 204 205 213 215 233
268 263 245 242 241 227 213 214 215 226 226 221 205 198 190 189 189 212 234 215 192 201 208 201 214 224 198 183 187 200 204 202 197 194 198 206 208 207 211 213 212 214 214 212
261 255 244 242 241 235 221 216 211 208 206 206 217 210 190 185 189 233 253 231 207 208 206 205 221 221 197 193 190 198 207 209 203 199 204 209 213 215 212 210 213 219 222 213
247 241 235 223 216 226 230 226 227 222 209 205 208 202 201 194 203 231 244 237 213 220 223 210 208 209 200 203 208 207 206 205 205 209 208 204 215 218 216 216 218 220 228 221
275 258 252 238 221 216 215 213 223 229 220 204 196 201 213 214 210 220 228 216 207 223 235 218 206 207 214 215 213 211 206 202 203 209 205 197 202 211 212 217 220 222 217 212
314 300 278 246 225 216 220 216 205 211 214 198 190 200 210 223 219 214 216 220 220 218 213 206 200 207 213 214 208 211 213 208 204 200 194 188 190 203 219 223 220 216 218 218
340 334 339 318 230 226 219 197 182 200 212 202 197 204 209 214 207 198 200 226 247 226 213 209 207 211 213 210 206 207 210 208 201 194 191 190 191 199 217 227 225 218 218 215
331 336 317 0 81 298 265 194 183 195 198 208 208 202 197 201 208 219 213 212 225 218 213 215 214 212 206 206 201 201 206 206 201 194 192 190 185 193 213 226 227 226 220 212
310 311 331 275 216 254 290 263 208 192 190 211 215 206 199 206 203 192 216 237 207 213 212 222 211 206 204 205 198 191 190 190 192 189 190 195 195 200 210 222 225 225 225 215
329 336 330 293 295 18 297 273 245 226 223 226 226 217 204 210 239 224 197 192 189 203 212 213 213 219 208 189 179 173 175 175 181 188 193 185 176 190 212 222 222 227 226 212
304 301 302 313 311 278 268 258 235 232 215 226 248 253 231 186 188 222 196 176 180 190 215 212 214 218 188 167 174 182 190 190 183 182 188 185 185 189 207 218 223 217 205 197
288 283 274 251 237 244 250 235 234 255 199 201 262 253 209 152 144 156 178 197 194 188 188 199 187 191 192 188 188 192 192 184 174 179 189 185 186 192 196 205 210 212 206 192
297 299 303 305 288 255 234 209 205 232 226 194 187 192 177 147 130 154 173 168 158 154 151 178 185 171 168 170 169 173 176 172 174 184 192 191 187 185 185 194 208 201 188 168
Height
1490 1485 1483 1484 1484 1484 1490 1497 1504 1500 1498 1492 1486 1485 1485 1485 1487 1490 1492 1495 1497 1499 1501 1502 1504 1507 1509 1511 1513 1515 1517 1519 1520 1522 1524 1525 1526 1527 1528 1529 1529 1530 1531 1531
1491 1483 1482 1485 1482 1482 1484 1486 1490 1492 1492 1482 1482 1483 1485 1485 1487 1488 1490 1492 1495 1497 1498 1500 1501 1504 1506 1508 1510 1513 1514 1516 1518 1520 1521 1523 1524 1525 1526 1527 1528 1528 1529 1529
1503 1490 1487 1496 1486 1482 1483 1482 1486 1492 1488 1481 1482 1483 1483 1484 1485 1487 1488 1490 1492 1494 1496 1498 1499 1501 1503 1505 1507 1509 1511 1513 1515 1517 1519 1520 1521 1523 1524 1525 1526 1526 1527 1528
1505 1500 1510 1494 1477 1476 1479 1480 1479 1480 1479 1478 1479 1480 1480 1481 1483 1484 1486 1488 1490 1492 1493 1495 1497 1499 1501 1503 1505 1506 1508 1510 1512 1514 1516 1517 1519 1520 1521 1522 1523 1524 1525 1526
1510 1510 1501 1486 1477 1476 1480 1483 1478 1478 1477 1477 1478 1479 1482 1482 1482 1483 1484 1486 1488 1489 1491 1493 1495 1497 1499 1501 1503 1504 1505 1507 1509 1511 1512 1514 1516 1517 1518 1520 1521 1522 1522 1523
1505 1507 1508 1490 1474 1471 1475 1486 1477 1475 1476 1476 1475 1484 1484 1481 1481 1482 1483 1484 1485 1488 1489 1491 1492 1494 1496 1498 1500 1501 1503 1504 1506 1508 1509 1510 1512 1514 1515 1517 1518 1519 1520 1521
1502 1504 1495 1478 1472 1470 1489 1489 1477 1474 1474 1474 1475 1477 1478 1479 1480 1480 1481 1483 1484 1485 1487 1489 1490 1492 1494 1495 1497 1499 1500 1502 1504 1505 1506 1508 1509 1511 1512 1513 1515 1516 1517 1518
1500 1503 1497 1474 1472 1477 1479 1473 1474 1473 1473 1473 1473 1474 1476 1477 1478 1479 1480 1481 1482 1483 1485 1487 1488 1490 1491 1493 1494 1496 1498 1500 1501 1502 1503 1505 1506 1507 1509 1510 1511 1512 1513 1514
1489 1489 1479 1474 1473 1472 1472 1472 1472 1472 1472 1472 1472 1474 1475 1476 1477 1478 1479 1480 1481 1482 1483 1485 1486 1488 1489 1491 1492 1494 1496 1497 1498 1499 1500 1502 1502 1503 1505 1506 1507 1508 1510 1510
1482 1478 1475 1473 1471 1471 1471 1470 1471 1471 1472 1471 1472 1473 1475 1476 1477 1478 1478 1479 1480 1481 1482 1483 1484 1486 1487 1488 1490 1491 1492 1494 1495 1496 1497 1498 1500 1500 1501 1502 1503 1505 1506 1506
1481 1477 1474 1472 1470 1470 1470 1470 1471 1471 1471 1471 1471 1472 1474 1475 1476 1477 1478 1479 1480 1480 1480 1481 1483 1484 1484 1486 1487 1488 1489 1490 1492 1493 1494 1495 1496 1497 1498 1499 1500 1501 1502 1503
1480 1475 1474 1472 1471 1470 1470 1469 1470 1470 1470 1470 1470 1471 1472 1473 1475 1475 1476 1477 1478 1479 1479 1480 1481 1482 1482 1483 1484 1485 1485 1487 1488 1489 1490 1492 1492 1493 1494 1496 1497 1498 1499 1500
1471 1471 1471 1470 1469 1468 1468 1468 1468 1468 1468 1467 1468 1469 1470 1471 1473 1474 1474 1475 1476 1477 1478 1478 1479 1480 1480 1481 1481 1482 1482 1484 1485 1486 1487 1488 1489 1490 1491 1492 1493 1495 1496 1497
1467 1467 1467 1467 1466 1466 1466 1466 1467 1466 1466 1466 1466 1467 1468 1469 1470 1471 1472 1473 1474 1475 1475 1476 1476 1477 1477 1478 1479 1480 1480 1481 1482 1483 1483 1485 1486 1487 1488 1488 1489 1490 1492 1493
1463 1463 1463 1463 1463 1463 1464 1464 1464 1464 1464 1464 1464 1464 1465 1466 1467 1469 1470 1471 1472 1472 1473 1473 1474 1474 1475 1476 1476 1477 1477 1478 1479 1479 1480 1481 1482 1483 1484 1485 1486 1486 1487 1489
1459 1458 1458 1458 1458 1459 1460 1460 1460 1460 1461 1461 1461 1462 1463 1463 1465 1466 1468 1468 1469 1469 1469 1470 1470 1471 1472 1473 1473 1474 1474 1475 1475 1476 1477 1478 1479 1480 1481 1481 1482 1482 1483 1484
1455 1454 1453 1453 1454 1454 1455 1456 1456 1456 1457 1458 1458 1460 1460 1461 1462 1463 1464 1465 1465 1466 1466 1466 1467 1468 1469 1470 1470 1470 1471 1471 1472 1473 1473 1474 1474 1475 1476 1477 1478 1479 1479 1480
1450 1449 1449 1449 1449 1450 1450 1451 1452 1453 1454 1454 1456 1457 1457 1457 1458 1459 1460 1461 1462 1462 1462 1463 1464 1465 1465 1466 1467 1467 1467 1468 1468 1469 1469 1470 1471 1472 1472 1473 1474 1474 1475 1476
1445 1445 1444 1445 1445 1446 1446 1447 1448 1449 1450 1451 1452 1452 1453 1454 1454 1455 1457 1457 1457 1458 1458 1460 1460 1461 1462 1463 1463 1463 1464 1464 1465 1465 1466 1466 1468 1468 1469 1469 1470 1470 1470 1471
1442 1441 1440 1441 1441 1441 1442 1442 1443 1444 1445 1446 1447 1448 1449 1450 1451 1452 1452 1452 1453 1454 1455 1456 1456 1457 1458 1459 1459 1459 1460 1460 1461 1461 1462 1463 1463 1464 1465 1465 1466 1466 1466 1466
1440 1439 1438 1437 1437 1438 1438 1439 1439 1440 1441 1442 1442 1443 1444 1446 1447 1447 1448 1448 1449 1451 1451 1452 1453 1454 1454 1455 1456 1456 1456 1456 1457 1458 1458 1459 1460 1460 1461 1461 1461 1462 1462 1462
1440 1438 1437 1436 1436 1436 1436 1437 1437 1437 1438 1439 1439 1440 1441 1442 1443 1443 1444 1445 1445 1447 1448 1448 1449 1450 1450 1451 1452 1452 1452 1453 1453 1454 1455 1456 1456 1457 1458 1458 1458 1458 1458 1458
1440 1438 1437 1436 1435 1435 1435 1435 1435 1436 1436 1436 1437 1437 1438 1439 1439 1440 1440 1441 1442 1443 1444 1445 1446 1446 1447 1447 1448 1448 1449 1449 1450 1451 1451 1452 1453 1454 1454 1454 1455 1455 1455 1455
1440 1438 1436 1436 1435 1434 1434 1434 1434 1434 1434 1434 1435 1435 1435 1435 1436 1437 1438 1439 1439 1440 1441 1442 1442 1443 1444 1444 1444 1445 1446 1446 1447 1448 1448 1449 1450 1450 1451 1451 1451 1451 1451 1451
1439 1437 1436 1435 1434 1433 1433 1432 1431 1431 1432 1432 1432 1433 1433 1433 1434 1435 1436 1437 1437 1438 1438 1439 1439 1440 1441 1441 1442 1442 1443 1444 1444 1444 1445 1446 1446 1447 1448 1448 1449 1448 1448 1448
1437 1436 1435 1434 1433 1433 1432 1431 1430 1430 1430 1430 1430 1430 1431 1432 1433 1434 1435 1435 1436 1436 1437 1437 1437 1437 1438 1439 1439 1440 1440 1440 1440 1441 1442 1443 1443 1444 1444 1445 1445 1445 1445 1444
1436 1435 1433 1432 1432 1432 1431 1431 1430 1430 1429 1429 1429 1430 1430 1431 1432 1433 1433 1434 1434 1435 1435 1435 1435 1435 1436 1436 1437 1437 1438 1438 1438 1438 1439 1440 1440 1441 1441 1441 1441 1441 1441 1441